CW9119 Weather Reports


Display with metric or nautical units.
time (UTC)temp
F
wind
direction
speed
MPH
gust
MPH
rain 1hr
in
rain 24hr
in
rain mn
in
humidity
%
barometer
mb
20181115182110 32 135 0.0 1.0 0.00 0.01 0.01 93 1028.1
20181115181110 33 135 0.0 0.0 0.00 0.01 0.01 93 1028.0
20181115180110 33 135 0.0 0.0 0.00 0.01 0.01 92 1027.8
20181115174110 34 135 0.0 0.0 0.00 0.01 0.01 92 1027.6
20181115172110 34 135 0.0 2.0 0.00 0.01 0.01 91 1027.6
20181115170111 35 140 0.0 0.0 0.00 0.01 0.01 90 1027.5
20181115165110 35 140 0.0 0.0 0.00 0.01 0.01 90 1027.5
20181115164111 36 140 0.0 0.0 0.00 0.01 0.01 89 1027.4
20181115162110 37 140 0.0 0.0 0.00 0.01 0.01 88 1027.3
20181115161110 37 140 0.0 0.0 0.00 0.01 0.01 87 1027.4
20181115160111 38 140 0.0 0.0 0.00 0.01 0.01 86 1027.5
20181115154110 39 140 0.0 0.0 0.00 0.01 0.01 84 1027.6
20181115153110 39 140 0.0 0.0 0.00 0.01 0.01 83 1027.6
20181115150110 41 140 0.0 0.0 0.00 0.01 0.01 80 1027.5
20181115145110 42 140 0.0 0.0 0.00 0.01 0.01 78 1027.6
20181115131110 45 158 0.0 1.0 0.00 0.00 0.00 74 1027.9
20181115130110 45 154 0.0 5.0 0.00 0.00 0.00 73 1028.0
20181115124110 45 153 2.0 7.0 0.00 0.00 0.00 72 1027.9
20181115115110 45 151 1.0 7.0 0.00 0.00 0.00 74 1028.1
20181115111110 45 134 3.0 7.0 0.00 0.00 0.00 75 1028.2
20181115110110 45 159 0.0 5.0 0.00 0.00 0.00 75 1028.4
20181115104110 45 140 1.0 7.0 0.00 0.00 0.00 76 1028.4
20181115101110 44 163 3.0 7.0 0.00 0.00 0.00 80 1028.8
20181115100110 44 142 1.0 6.0 0.00 0.00 0.00 82 1028.9
20181115095110 43 78 1.0 6.0 0.00 0.00 0.00 84 1028.6
20181115093110 43 105 0.0 4.0 0.00 0.00 0.00 86 1028.7
20181115083110 41 97 0.0 2.0 0.00 0.00 0.00 95 1028.3
20181115074110 35 5 0.0 0.0 0.00 0.00 0.00 96 1027.9
20181115070110 35 5 0.0 0.0 0.00 0.00 0.00 95 1027.5
20181115063110 35 5 0.0 0.0 0.00 0.00 0.00 95 1027.5
20181115062110 34 5 0.0 0.0 0.00 0.00 0.00 95 1027.3
20181115061110 34 5 0.0 0.0 0.00 0.00 0.00 95 1027.3
20181115053110 34 5 0.0 0.0 0.00 0.00 0.00 95 1026.9
20181115044110 34 5 0.0 0.0 0.00 0.00 0.00 95 1027.0
20181115042110 34 5 0.0 0.0 0.00 0.00 0.00 95 1026.9
20181115035110 34 5 0.0 0.0 0.00 0.00 0.00 95 1026.9
20181115032110 34 5 0.0 0.0 0.00 0.00 0.00 95 1027.4
20181115030110 34 5 0.0 0.0 0.00 0.00 0.00 95 1027.4
20181115022111 34 5 0.0 0.0 0.00 0.00 0.00 95 1027.6
20181115020111 34 5 0.0 0.0 0.00 0.00 0.00 95 1027.7
20181115014111 34 5 0.0 0.0 0.00 0.00 0.00 95 1027.7
20181115013111 34 5 0.0 0.0 0.00 0.00 0.00 95 1027.7
20181115011111 34 5 0.0 0.0 0.00 0.00 0.00 95 1027.7
20181115010111 34 5 0.0 0.0 0.00 0.00 0.00 95 1027.7
20181115004111 34 5 0.0 0.0 0.00 0.00 0.00 95 1028.0
20181115001111 34 5 0.0 0.0 0.00 0.00 0.00 94 1028.0
20181115000111 34 5 0.0 0.0 0.00 0.00 0.00 94 1027.9
20181114235111 34 5 0.0 0.0 0.00 0.00 0.00 94 1028.0
20181114233111 34 5 0.0 0.0 0.00 0.00 0.00 94 1028.0
20181114232111 34 5 0.0 0.0 0.00 0.00 0.00 94 1028.0
20181114225112 34 5 0.0 0.0 0.00 0.00 0.00 94 1027.9
20181114224111 34 5 0.0 0.0 0.00 0.00 0.00 94 1028.0
20181114215111 34 5 0.0 0.0 0.00 0.00 0.00 94 1027.9
20181114214111 34 5 0.0 0.0 0.00 0.00 0.00 94 1027.8
20181114213111 34 5 0.0 0.0 0.00 0.00 0.00 94 1027.9
20181114205111 34 5 0.0 0.0 0.00 0.00 0.00 94 1027.9
20181114204111 34 5 0.0 0.0 0.00 0.00 0.00 94 1027.9
20181114202111 34 5 0.0 0.0 0.00 0.00 0.00 94 1028.0
20181114194111 34 5 0.0 0.0 0.00 0.00 0.00 94 1027.9
20181114192111 34 5 0.0 0.0 0.00 0.00 0.00 94 1028.0
20181114190111 34 5 0.0 0.0 0.00 0.00 0.00 94 1027.6